EW6640 Weather Reports


time (UTC)temp
C
wind
direction
speed
KPH
gust
KPH
rain 1hr
cm
rain 24hr
cm
rain mn
cm
humidity
%
barometer
mb
20260903010045 28 190 0.0 3.2 0.00 0.00 0.00 79 1014.8
20260903004551 29 190 0.0 1.6 0.00 0.00 0.00 78 1014.7
20260903003057 29 191 0.0 3.2 0.00 0.00 0.00 77 1014.6
20260903001643 30 191 0.0 3.2 0.00 0.00 0.00 75 1014.6
20260903000053 30 189 0.0 1.6 0.00 0.00 0.00 74 1014.5
20260902234542 30 238 0.0 3.2 0.00 0.00 0.00 73 1014.8
20260902233043 31 200 0.0 4.8 0.00 0.00 0.00 72 1014.6
20260902231545 31 355 0.0 8.0 0.00 0.00 0.00 71 1014.8
20260902230045 31 304 0.0 6.4 0.00 0.00 0.00 70 1014.9
20260902224602 32 246 0.0 6.4 0.00 0.00 0.00 70 1014.6
20260902223039 32 165 3.2 9.7 0.00 0.00 0.00 68 1014.8
20260902221539 32 191 1.6 6.4 0.00 0.00 0.00 67 1014.9
20260902220038 33 175 0.0 4.8 0.00 0.00 0.00 66 1014.8
20260902214627 33 190 0.0 9.7 0.00 0.00 0.00 65 1014.7
20260902213041 33 192 1.6 9.7 0.00 0.00 0.00 64 1014.9
20260902211552 33 165 0.0 9.7 0.00 0.00 0.00 64 1014.9
20260902210053 33 205 0.0 9.7 0.00 0.00 0.00 62 1014.9
20260902204605 34 106 0.0 9.7 0.00 0.00 0.00 60 1015.1
20260902203154 35 321 0.0 6.4 0.00 0.00 0.00 62 1015.2
20260902201601 34 217 0.0 9.7 0.00 0.00 0.00 62 1015.4
20260902200040 34 342 1.6 8.0 0.00 0.00 0.00 63 1015.6
20260902194546 34 193 1.6 9.7 0.00 0.00 0.00 62 1015.9
20260902193036 33 208 1.6 12.9 0.00 0.00 0.00 61 1015.9
20260902191536 34 249 3.2 8.0 0.00 0.00 0.00 58 1016.0
20260902190032 33 180 1.6 6.4 0.00 0.00 0.00 62 1016.0
20260902184530 33 150 3.2 8.0 0.00 0.00 0.00 60 1016.0
20260902183028 33 169 3.2 9.7 0.00 0.00 0.00 62 1016.2
20260902181611 33 171 3.2 9.7 0.00 0.00 0.00 63 1016.5
20260902180020 32 321 1.6 4.8 0.00 0.00 0.00 66 1016.7
20260902174523 33 336 3.2 9.7 0.00 0.00 0.00 63 1016.8
20260902173013 32 176 1.6 6.4 0.00 0.00 0.00 66 1016.8
20260902171551 32 172 1.6 9.7 0.00 0.00 0.00 66 1017.1
20260902170037 31 153 0.0 6.4 0.00 0.00 0.00 69 1017.1
20260902164541 31 175 3.2 8.0 0.00 0.00 0.00 69 1017.3
20260902163034 31 316 1.6 9.7 0.00 0.00 0.00 71 1017.4
20260902161532 30 165 1.6 6.4 0.00 0.00 0.00 73 1017.3
20260902160026 30 288 1.6 6.4 0.00 0.00 0.00 73 1017.2
20260902154526 30 192 0.0 4.8 0.00 0.00 0.00 75 1017.4
20260902153026 29 208 0.0 3.2 0.00 0.00 0.00 77 1017.4
20260902151517 28 278 1.6 6.4 0.00 0.00 0.00 76 1017.3
20260902150019 28 319 1.6 6.4 0.00 0.00 0.00 79 1017.3
20260902144508 28 252 0.0 4.8 0.00 0.00 0.00 80 1017.6
20260902143102 27 230 1.6 6.4 0.00 0.00 0.00 82 1017.6
20260902141601 27 300 0.0 3.2 0.00 0.00 0.00 84 1017.6
20260902140106 26 188 0.0 4.8 0.00 0.00 0.00 86 1017.5
20260902134555 25 11 0.0 4.8 0.00 0.00 0.00 87 1017.5
20260902133115 25 176 0.0 3.2 0.00 0.00 0.00 91 1017.5
20260902131536 23 319 0.0 4.8 0.00 0.00 0.00 93 1017.6
20260902130132 23 200 0.0 3.2 0.00 0.00 0.00 96 1017.5
20260902124514 22 194 0.0 0.0 0.00 0.00 0.00 98 1017.6
20260902123014 21 194 0.0 0.0 0.00 0.00 0.00 100 1017.7
20260902121513 21 194 0.0 0.0 0.00 0.00 0.00 100 1017.6
20260902120013 21 194 0.0 0.0 0.00 0.00 0.00 99 1017.5
20260902114510 21 194 0.0 0.0 0.00 0.00 0.00 99 1017.2
20260902113009 21 194 0.0 0.0 0.00 0.00 0.00 98 1017.0
20260902111508 21 194 0.0 0.0 0.00 0.00 0.00 98 1016.8
20260902110014 21 194 0.0 0.0 0.00 0.00 0.00 98 1016.7
20260902104506 21 194 0.0 0.0 0.00 0.00 0.00 98 1016.9
20260902103005 21 194 0.0 0.0 0.00 0.00 0.00 97 1016.8
20260902101505 21 194 0.0 0.0 0.00 0.00 0.00 97 1016.7
20260902100004 21 194 0.0 0.0 0.00 0.00 0.00 97 1017.0
20260902094502 21 194 0.0 0.0 0.00 0.00 0.00 97 1016.8
20260902093101 21 194 0.0 0.0 0.00 0.00 0.00 97 1016.6
20260902091607 22 194 0.0 0.0 0.00 0.00 0.00 96 1016.5
20260902090104 22 194 0.0 0.0 0.00 0.00 0.00 96 1016.6
20260902084605 22 194 0.0 0.0 0.00 0.00 0.00 96 1016.6
20260902083112 22 194 0.0 0.0 0.00 0.00 0.00 95 1016.5
20260902081553 22 194 0.0 0.0 0.00 0.00 0.00 94 1016.5
20260902080053 22 194 0.0 0.0 0.00 0.00 0.00 93 1016.4
20260902074548 23 194 0.0 0.0 0.00 0.00 0.00 92 1016.3
20260902073047 23 194 0.0 0.0 0.00 0.00 0.00 91 1016.2
20260902071544 23 194 0.0 0.0 0.00 0.00 0.00 90 1016.2
20260902070043 24 194 0.0 0.0 0.00 0.00 0.00 89 1016.2
20260902064543 25 194 0.0 0.0 0.00 0.00 0.00 88 1016.2
20260902063038 25 194 0.0 0.0 0.00 0.00 0.00 86 1016.2
20260902061544 25 194 0.0 1.6 0.00 0.00 0.00 86 1016.2
20260902060032 25 190 0.0 0.0 0.00 0.00 0.00 86 1016.4
20260902054536 25 210 0.0 3.2 0.00 0.00 0.00 85 1016.5
20260902053031 25 219 0.0 3.2 0.00 0.00 0.00 85 1016.4
20260902051528 26 205 0.0 1.6 0.00 0.00 0.00 84 1016.0
20260902050028 26 205 0.0 1.6 0.00 0.00 0.00 84 1016.1
20260902044528 26 205 0.0 1.6 0.00 0.00 0.00 84 1016.0
20260902043025 26 206 0.0 1.6 0.00 0.00 0.00 83 1016.4
20260902041517 26 209 0.0 1.6 0.00 0.00 0.00 83 1016.4
20260902040013 26 209 0.0 1.6 0.00 0.00 0.00 83 1016.4
20260902034513 26 208 0.0 1.6 0.00 0.00 0.00 83 1016.2
20260902033012 26 208 0.0 1.6 0.00 0.00 0.00 83 1016.1
20260902031518 27 208 0.0 3.2 0.00 0.00 0.00 83 1015.9
20260902030012 27 228 0.0 1.6 0.00 0.00 0.00 82 1016.1
20260902024509 27 207 0.0 3.2 0.00 0.00 0.00 82 1016.0
20260902023025 27 209 0.0 3.2 0.00 0.00 0.00 83 1015.9
20260902021507 27 209 0.0 0.0 0.00 0.00 0.00 83 1016.0
20260902020012 27 209 0.0 0.0 0.00 0.00 0.00 82 1015.9
20260902014513 27 209 0.0 0.0 0.00 0.00 0.00 81 1015.8
20260902013006 28 209 0.0 0.0 0.00 0.00 0.00 80 1015.9